• Processing (Info)

  • MPEC 2000-G45 : 2000 GT127

    The following Minor Planet Electronic Circular may be linked-to from your own Web pages, but must not otherwise be redistributed electronically.

    A form allowing access to any MPEC is at the bottom of this page.


    Read MPEC 2000-G44 Read MPEC 2000-G46


    M.P.E.C. 2000-G45                                Issued 2000 Apr. 13, 16:56 UT
    
         The Minor Planet Electronic Circulars contain information on unusual
             minor planets and routine data on comets.  They are published
       on behalf of Commission 20 of the International Astronomical Union by the
              Minor Planet Center, Smithsonian Astrophysical Observatory,
                              Cambridge, MA 02138, U.S.A.
    
                 Prepared using the Tamkin Foundation Computer Network
    
                 BMARSDEN@CFA.HARVARD.EDU or GWILLIAMS@CFA.HARVARD.EDU
              URL http://cfa-www.harvard.edu/iau/mpc.html  ISSN 1523-6714
    
                                      2000 GT127
    
    Observations:
         K00GC7T* C2000 04 06.26010 12 50 46.30 -04 05 15.2          21.1 V      691
         K00GC7T  C2000 04 06.28109 12 50 44.47 -04 06 07.8          20.2 V      691
         K00GC7T  C2000 04 06.30223 12 50 42.70 -04 06 59.6          21.6 V      691
         K00GC7T  C2000 04 08.34144 12 48 04.22 -05 33 02.4          21.4 V      691
         K00GC7T  C2000 04 08.34862 12 48 03.65 -05 33 20.2          20.7 V      691
         K00GC7T  C2000 04 08.35467 12 48 03.05 -05 33 35.9          21.3 V      691
         K00GC7T 2C2000 04 09.41164 12 46 40.52 -06 19 17.6          20.2 R      568
         K00GC7T 2C2000 04 09.41726 12 46 40.01 -06 19 32.3          20.2 R      568
         K00GC7T  C2000 04 11.35294 12 44 06.09 -07 45 19.5          22.1 V      691
         K00GC7T  C2000 04 11.35679 12 44 05.69 -07 45 30.5          21.3 V      691
         K00GC7T  C2000 04 11.36054 12 44 05.38 -07 45 40.3          21.5 V      691
         K00GC7T HC2000 04 13.32066 12 41 30.21 -09 14 34.9          21.4 V      691
         K00GC7T HC2000 04 13.32451 12 41 29.90 -09 14 45.5          20.9 V      691
    
    Observer details:
    568 Mauna Kea.  Observer D. J. Tholen.  2.24-m University of Hawaii reflector
        + CCD.
    691 Steward Observatory, Kitt Peak.  Observers J. V. Scotti, M. T. Read,
        J. A. Larsen.  0.9-m Spacewatch telescope.
    
    Orbital elements:
    2000 GT127
    Epoch 2000 Apr. 6.0 TT = JDT 2451640.5                  Williams
    M 350.85093              (2000.0)            P               Q
    n   0.25936604     Peri.  206.87128     -0.72401202     +0.68583875
    a   2.4351589      Node    17.09340     -0.57918599     -0.54641368
    e   0.4735124      Incl.   14.52145     -0.37463339     -0.48068419
    P   3.80           H   22.6           G   0.15
    From 13 observations 2000 Apr. 6-13.
    
    Ephemeris:
    2000 GT127               a,e,i = 2.44, 0.47, 15                  q = 1.2821
    Date    TT    R. A. (2000) Decl.     Delta      r     Elong.  Phase     V
    2000 04 06    12 51.10   -03 54.2    0.333    1.333   176.5     2.7    21.1
    2000 04 11    12 44.58   -07 29.2    0.321    1.320   171.4     6.5    21.2
    2000 04 16    12 38.01   -11 18.4    0.313    1.309   165.3    11.2    21.4
    2000 04 21    12 31.82   -15 14.6    0.310    1.299   159.2    15.9    21.5
    2000 04 26    12 26.41   -19 10.0    0.311    1.292   153.4    20.4    21.6
    2000 05 01    12 22.17   -22 57.4    0.316    1.287   147.9    24.6    21.8
    2000 05 06    12 19.45   -26 31.7    0.325    1.283   143.0    28.2    21.9
    2000 05 11    12 18.51   -29 49.9    0.336    1.282   138.7    31.3    22.1
    2000 05 16    12 19.49   -32 51.0    0.351    1.283   134.9    33.9    22.3
    
    Gareth V. Williams           (C) Copyright 2000 MPC           M.P.E.C. 2000-G45
    

    Read MPEC 2000-G44 Read MPEC 2000-G46


    MPEC number:

    Enter an MPEC number in one of the following forms:

    • 1997-B01 (the full form)
    • J97B01 (the packed version of the full form)
    • B01 (the abbreviated form)